Tracking 29892 objects as of 21-Nov-2024
HD Live streaming from Space Station
objects crossing your sky now

STARLINK-5666

Track STARLINK-5666 now!
10-day predictions
STARLINK-5666 is classified as:


NORAD ID: 55349
Int'l Code: 2023-013U
Perigee: 565.5 km
Apogee: 567.0 km
Inclination: 43.0 °
Period: 95.8 minutes
Semi major axis: 6937 km
RCS: Unknown
Launch date: January 26, 2023
Source: United States (US)
Launch site: AIR FORCE EASTERN TEST RANGE (AFETR)
Your satellite tracking list
Your tracking list is empty




NASA's NSSDC Master Catalog

Two Line Element Set (TLE):
1 55349U 23013U   24325.46179600  .00005162  00000-0  39697-3 0  9995
2 55349  43.0038 357.1200 0001100 271.7329  88.3387 15.02527840100379
Source of the keplerian elements: AFSPC